Weather History for KCBM - August, 2013

Change the Weather History Date:

Wednesday, August 28, 2013

  Actual Average Record
Temperature  
Mean Temperature 76 °F -  
Max Temperature 90 °F 88 °F 96 °F (1998)
Min Temperature 63 °F 68 °F 63 °F (2013)
Cooling Degree Days 11    
Growing Degree Days 26 (Base 50)    
Moisture  
Dew Point 67 °F    
Average Humidity 78    
Maximum Humidity 100    
Minimum Humidity 44    
Precipitation  
Precipitation 0.00 in - - ()
Sea Level Pressure  
Sea Level Pressure 30.07 in    
Wind  
Wind Speed 1 mph (NW)    
Max Wind Speed 5 mph    
Max Gust Speed -    
Visibility 10 miles    
Events Rain    
Averages and records for this station are not official NWS values.
T = Trace of Precipitation, MM = Missing Value Source: NWS Daily Summary

Daily Weather History Graph

Daily Weather History Graph

Search for Another Location

Airport or City:

Trip Planner

Search our weather history database for the weather conditions in past years. The results will help you decide how hot, cold, wet, or windy it might be!

Date:

Astronomy

Aug. 28, 2013 Rise Set
Actual Time 6:25 AM CDT 7:24 PM CDT
Civil Twilight 5:59 AM CDT 7:49 PM CDT
Nautical Twilight 5:29 AM CDT 8:19 PM CDT
Astronomical Twilight 4:57 AM CDT 8:51 PM CDT
Moon No Moon Rise 1:53 PM CDT (8/28)
Length of Visible Light 13h 50m
Length of Day
12h 58m
Waning Gibbous, 47% of the Moon is Illuminated
Aug 28
Waning Gibbous
Sep 5
New
Sep 12
First Quarter
Sep 19
Full
Sep 26
Last Quarter

Hourly Weather History & Observations

Time (CDT) Temp. Heat Index Dew Point Humidity Pressure Visibility Wind Dir Wind Speed Gust Speed Precip Events Conditions
12:58 AM 66.9 °F - 66.7 °F 99% 30.08 in 10.0 mi Calm Calm - N/A   Clear
1:58 AM 66.0 °F - 66.0 °F 100% 30.06 in 10.0 mi Calm Calm - N/A   Clear
2:58 AM 65.8 °F - 65.8 °F 100% 30.06 in 10.0 mi Calm Calm - N/A   Clear
3:49 AM 66.2 °F - 66.2 °F 100% 30.05 in 10.0 mi Calm Calm - N/A   Clear
3:58 AM 65.3 °F - 65.3 °F 100% 30.06 in 10.0 mi Calm Calm - 0.00 in Rain Light Rain
3:59 AM 66.2 °F - 66.2 °F 100% 30.05 in 10.0 mi Calm Calm - N/A   Clear
4:58 AM 63.9 °F - 63.9 °F 100% 30.06 in 10.0 mi SE 1.2 mph - 0.00 in   Clear
5:58 AM 63.9 °F - 63.9 °F 100% 30.09 in 10.0 mi Calm Calm - N/A   Clear
6:58 AM 64.9 °F - 64.9 °F 100% 30.10 in 10.0 mi Calm Calm - N/A   Clear
7:58 AM 69.6 °F - 66.9 °F 91% 30.12 in 10.0 mi Calm Calm - N/A   Clear
8:56 AM 75.2 °F - 66.2 °F 73% 30.12 in 10.0 mi Calm Calm - N/A   Scattered Clouds
9:56 AM 78.8 °F - 66.2 °F 65% 30.12 in 10.0 mi Variable 2.3 mph - N/A   Clear
10:58 AM 83.7 °F 86.5 °F 67.6 °F 58% 30.12 in 10.0 mi Variable 1.2 mph - N/A   Clear
11:58 AM 86.2 °F 88.4 °F 66.0 °F 51% 30.12 in 10.0 mi Variable 1.2 mph - N/A   Clear
12:58 PM 87.1 °F 88.3 °F 63.9 °F 46% 30.09 in 10.0 mi NNE 1.2 mph - N/A   Clear
1:58 PM 88.5 °F 90.5 °F 65.1 °F 46% 30.08 in 10.0 mi Calm Calm - N/A   Partly Cloudy
2:58 PM 89.2 °F 91.3 °F 65.3 °F 45% 30.06 in 10.0 mi North 3.5 mph - N/A   Partly Cloudy
3:58 PM 89.6 °F 91.5 °F 65.1 °F 44% 30.04 in 10.0 mi NW 3.5 mph - N/A   Partly Cloudy
4:58 PM 89.4 °F 91.2 °F 64.9 °F 44% 30.04 in 10.0 mi Variable 4.6 mph - N/A   Scattered Clouds
5:58 PM 88.2 °F 90.3 °F 65.5 °F 47% 30.04 in 10.0 mi Calm Calm - N/A   Clear
6:58 PM 84.2 °F 89.6 °F 71.6 °F 66% 30.04 in 10.0 mi WSW 4.6 mph - N/A   Clear
7:58 PM 77.0 °F - 72.7 °F 86% 30.04 in 10.0 mi WSW 3.5 mph - N/A   Clear
8:58 PM 75.2 °F - 71.8 °F 89% 30.04 in 10.0 mi Calm Calm - N/A   Clear
9:58 PM 73.8 °F - 71.1 °F 91% 30.05 in 10.0 mi Calm Calm - N/A   Clear
10:58 PM 72.0 °F - 70.3 °F 95% 30.06 in 10.0 mi Calm Calm - N/A   Clear
11:58 PM 71.4 °F - 70.5 °F 97% 30.06 in 10.0 mi Calm Calm - N/A   Clear